Regional Weather Roundup
Issued by NWS

Home | Current Version | Previous Version | Text Only | Print | Product List | Glossary On
Versions: 1 2 3 4 5 6 7 8 9 10 11 12 13 14 15 16 17 18 19 20 21 22 23 24 25 26 27 28 29 30 31 32 33 34 35 36 37 38 39 40 41 42 43 44 45 46 47 48 49 50
000
ASCA44 KEWX 040420
RWRMX

LATIN AMERICA AND CARIBBEAN REGIONAL WEATHER ROUNDUP
NATIONAL WEATHER SERVICE AUSTIN/SAN ANTONIO TX
1100 PM CDT SUN MAY 03 2015

NOTE: "FAIR" INDICATED FEW OR NO CLOUDS BELOW 12,000 FEET WITH NO
SIGNIFICANT WEATHER AND/OR OBSTRUCTIONS TO VISIBILITY.

BAJA CALIFORNIA

CITY           SKY/WX    TMP DP  RH WIND       PRES   REMARKS
LA PAZ         CLEAR     72  50  46 SW9       29.92R
MEXICALI       CLEAR     75  57  53 SE12      29.71R
S.J. DEL CABO  CLEAR     75  55  50 W9        29.88R
TIJUANA        CLOUDY    61  50  67 W7        29.93R

NORTHWESTERN MEXICO

CITY           SKY/WX    TMP DP  RH WIND       PRES   REMARKS
CULIACAN       PTCLDY    73  66  78 W6        29.88R
HERMOSILLO     PTCLDY    79  55  44 S7        29.84R
LOS MOCHIS     MOCLDY    77  52  41 S9        29.85R
OBREGON        CLOUDY    73  55  53 SE7       29.81R

NORTHEASTERN MEXICO

CITY           SKY/WX    TMP DP  RH WIND       PRES   REMARKS
CHIHUAHUA      MOCLDY    70  32  24 SW9       29.91R
MONTERREY      CLOUDY    73  66  78 E12       29.92R
REYNOSA        CLEAR     70  66  88 SE7       29.95R
SALTILLO       CLEAR     61  52  72 CALM      30.07S
TORREON        PTCLDY    82  39  21 CALM      29.88R
CD. VICTORIA   MOCLDY    75  64  69 S12       29.95R

WESTERN MEXICO

CITY           SKY/WX    TMP DP  RH WIND       PRES   REMARKS
AGUASCALIENTES CLEAR     63  27  25 S2        30.16R
COLIMA         CLEAR     72  55  56 CALM      29.98R
DEL BAJIO      CLEAR     66  30  26 NE5       30.21R
GUADALAJARA    CLEAR     68  39  34 W7        30.12R
MAZATLAN       CLEAR     70  61  73 NW8       29.88R
P. VALLARTA    MOCLDY    79  72  78 S9        29.90R
ZACATECAS      CLEAR     61  32  33 SW12      30.19R

CENTRAL MEXICO

CITY           SKY/WX    TMP DP  RH WIND       PRES   REMARKS
MEXICO CITY    CLOUDY    63  54  72 NE8       30.27R
MORELIA        CLEAR     66  50  55 SW6       30.16R
PUEBLA         MOCLDY    61  50  67 N8        30.29R
QUERETARO      PTCLDY    64  55  72 E8        30.22R
S. LUIS POTOSI CLEAR     63  55  77 SE9       30.15R
TAMPICO        MOCLDY    79  70  73 S12       29.95R
TOLUCA         PTCLDY    59  41  51 NW5       30.34R

SOUTHERN MEXICO

CITY           SKY/WX    TMP DP  RH WIND       PRES   REMARKS
ACAPULCO       PTCLDY    84  77  79 W6        29.84R HX  94
OAXACA         MOCLDY    68  59  73 E3        30.18R
VERACRUZ       CLEAR     77  70  78 E6        29.94S

YUCATAN PENINSULA

CITY           SKY/WX    TMP DP  RH WIND       PRES   REMARKS
CANCUN         PTCLDY    79  68  69 NE7       29.99R
COZUMEL        PTCLDY    72  70  94 CALM      29.98S
MERIDA         PTCLDY    77  64  65 NE9       29.99R
TAPACHULA      MOCLDY    75  75 100 E18       29.89R
TUX. GUTIERREZ PTCLDY    77  64  65 NW8       29.93R
VILLAHERMOSA   PTCLDY    79  75  89 E8        29.95R

CENTRAL AMERICA

CITY           SKY/WX    TMP DP  RH WIND       PRES   REMARKS
MANAGUA        PTCLDY    84  73  70 E7        29.86R HX  91

CARIBBEAN

CITY           SKY/WX    TMP DP  RH WIND       PRES   REMARKS
ARUBA          MOCLDY    81  75  83 E23       29.86S
CURACAO        PTCLDY    81  75  83 E14       29.92S
KINGSTON       PTCLDY    82  72  69 SE16      29.94S
NASSAU         MOCLDY    73  59  60 NE9       30.13S
SAN JUAN       CLEAR     79  73  83 E5        30.04F
ST. CROIX      PTCLDY    81  73  78 E10       30.04
ST. MAARTEN    PTCLDY    81  72  74 SE7       30.03F
ST. THOMAS     PTCLDY    81  73  78 E7        30.04

$$



USA.gov is the U.S. government's official web portal to all federal, state and local government web resources and services.